Location: Powder Track
(41.8531°N, 72.3584°W)
Time: 17:22:04
(UTC+00:00)

Transit 4A - Pass Details

Date: 07 August 2021
Orbit: 871 x 974 km, 66.8° (Epoch: 19 September)

Event Time Altitude Azimuth Distance (km) Brightness Sun altitude
Rises 04:35:09 0° 245° (WSW) 3,482 - -31.6°
Reaches altitude 10° 04:38:03 10° 257° (WSW) 2,534 - -31.7°
Exits shadow 04:40:14 19° 275° (W) 1,952 9.6 -31.7°
Maximum altitude 04:42:54 27° 314° (NW) 1,634 9.5 -31.7°
Drops below altitude 10° 04:47:46 10° 11° (N) 2,525 11.0 -31.8°
Sets 04:50:40 0° 23° (NNE) 3,468 11.8 -31.8°
